Weather History for KGAG - October, 2013

Change the Weather History Date:

Wednesday, October 2, 2013

  Actual Average Record
Temperature  
Mean Temperature 75 °F -  
Max Temperature 84 °F 80 °F 95 °F (1951)
Min Temperature 66 °F 51 °F 32 °F (2004)
Cooling Degree Days 10    
Growing Degree Days 25 (Base 50)    
Moisture  
Dew Point 62 °F    
Average Humidity 66    
Maximum Humidity 81    
Minimum Humidity 49    
Precipitation  
Precipitation 0.00 in - - ()
Sea Level Pressure  
Sea Level Pressure 29.79 in    
Wind  
Wind Speed 19 mph (South)    
Max Wind Speed 26 mph    
Max Gust Speed 34 mph    
Visibility 10 miles    
Events      
Averages and records for this station are not official NWS values.
T = Trace of Precipitation, MM = Missing Value Source: NWS Daily Summary

Daily Weather History Graph

Daily Weather History Graph

Search for Another Location

Airport or City:

Trip Planner

Search our weather history database for the weather conditions in past years. The results will help you decide how hot, cold, wet, or windy it might be!

Date:

Astronomy

Oct. 02, 2013 Rise Set
Actual Time 7:35 AM CDT 7:20 PM CDT
Civil Twilight 7:09 AM CDT 7:46 PM CDT
Nautical Twilight 6:39 AM CDT 8:16 PM CDT
Astronomical Twilight 6:09 AM CDT 8:46 PM CDT
Moon 5:13 AM CDT (10/2) 5:55 PM CDT (10/2)
Length of Visible Light 12h 36m
Length of Day
11h 45m
Waning Crescent, 6% of the Moon is Illuminated
Oct 2
Waning Crescent
Oct 4
New
Oct 11
First Quarter
Oct 18
Full
Oct 26
Last Quarter

Hourly Weather History & Observations

Time (CDT) Temp. Heat Index Dew Point Humidity Pressure Visibility Wind Dir Wind Speed Gust Speed Precip Events Conditions
12:53 AM 69.1 °F - 59.0 °F 70% 29.84 in 10.0 mi SSE 18.4 mph 27.6 mph N/A   Clear
1:53 AM 68.0 °F - 57.9 °F 70% 29.83 in 10.0 mi South 20.7 mph 27.6 mph N/A   Clear
2:53 AM 66.9 °F - 57.9 °F 73% 29.83 in 10.0 mi South 18.4 mph 25.3 mph N/A   Clear
3:53 AM 66.0 °F - 59.0 °F 78% 29.81 in 10.0 mi South 18.4 mph 24.2 mph N/A   Clear
4:53 AM 66.0 °F - 59.0 °F 78% 29.81 in 10.0 mi South 17.3 mph - N/A   Clear
5:53 AM 66.0 °F - 59.0 °F 78% 29.81 in 10.0 mi South 16.1 mph - N/A   Clear
6:53 AM 66.0 °F - 59.0 °F 78% 29.81 in 10.0 mi South 17.3 mph - N/A   Clear
7:53 AM 66.0 °F - 60.1 °F 81% 29.83 in 10.0 mi SSE 18.4 mph - N/A   Clear
8:53 AM 66.9 °F - 61.0 °F 81% 29.85 in 10.0 mi SSE 15.0 mph - N/A   Clear
9:53 AM 72.0 °F - 63.0 °F 73% 29.85 in 10.0 mi South 13.8 mph - N/A   Clear
10:53 AM 75.9 °F - 63.0 °F 64% 29.85 in 10.0 mi South 19.6 mph 23.0 mph N/A   Clear
11:53 AM 79.0 °F - 64.0 °F 60% 29.83 in 10.0 mi South 17.3 mph 27.6 mph N/A   Clear
12:53 PM 81.0 °F 82.5 °F 64.0 °F 56% 29.82 in 10.0 mi South 21.9 mph 27.6 mph N/A   Clear
1:53 PM 82.0 °F 83.8 °F 64.9 °F 56% 29.79 in 10.0 mi South 20.7 mph 29.9 mph N/A   Clear
2:53 PM 84.0 °F 85.8 °F 64.9 °F 53% 29.75 in 10.0 mi South 21.9 mph 29.9 mph N/A   Clear
3:53 PM 84.0 °F 85.8 °F 64.9 °F 53% 29.74 in 10.0 mi South 26.5 mph 34.5 mph N/A   Clear
4:53 PM 84.0 °F 84.9 °F 63.0 °F 49% 29.73 in 10.0 mi South 24.2 mph 33.4 mph N/A   Clear
5:53 PM 82.9 °F 84.0 °F 63.0 °F 51% 29.73 in 10.0 mi South 23.0 mph 33.4 mph N/A   Clear
6:53 PM 81.0 °F 82.2 °F 63.0 °F 54% 29.74 in 10.0 mi South 16.1 mph 28.8 mph N/A   Clear
7:53 PM 77.0 °F - 64.0 °F 64% 29.74 in 10.0 mi South 15.0 mph - N/A   Clear
8:53 PM 75.9 °F - 63.0 °F 64% 29.75 in 10.0 mi SSE 18.4 mph 26.5 mph N/A   Clear
9:53 PM 75.0 °F - 63.0 °F 66% 29.75 in 10.0 mi SSE 19.6 mph 24.2 mph N/A   Clear
10:53 PM 73.0 °F - 63.0 °F 71% 29.76 in 10.0 mi SSE 18.4 mph 25.3 mph N/A   Clear
11:53 PM 72.0 °F - 63.0 °F 73% 29.75 in 10.0 mi South 19.6 mph - N/A   Clear